Location: Bosdarros
(43.2167°N, 0.3667°W)
Time: 15:44:39
(UTC+00:00)

Meteor 1-4 Rocket - Pass Details

Date: 22 April 2021
Orbit: 448 x 499 km, 81.2° (Epoch: 12 May)

Event Time Altitude Azimuth Distance (km) Brightness Sun altitude
Exits shadow 20:50:22 31° 55° (NE) 828 3.6 -19.5°
Drops below altitude 10° 20:52:41 10° 25° (NNE) 1,618 5.4 -19.8°
Sets 20:54:52 0° 18° (NNE) 2,507 6.5 -20.1°
